This is the latest recevied weather packets stored in our database for station/object IZ1BLA-10. If no packets are shown the sender has not sent any weather packets the latest 10 day(s).
| Time | Temp. | Humidity | Pressure | Rain* | Wind** | Luminosity | Snow |
|---|---|---|---|---|---|---|---|
| 1777891152 | 18.33° C | 42% | 1016.9 hPa | - | - | - | - |
| 1777890552 | 17.78° C | 42% | 1017 hPa | - | - | - | - |
| 1777889952 | 17.78° C | 42% | 1017 hPa | - | - | - | - |
| 1777889353 | 17.78° C | 42% | 1017 hPa | - | - | - | - |
| 1777888753 | 17.78° C | 42% | 1017.2 hPa | - | - | - | - |
| 1777888153 | 17.78° C | 44% | 1017.1 hPa | - | - | - | - |
| 1777887552 | 18.33° C | 45% | 1017.1 hPa | - | - | - | - |
| 1777886953 | 18.33° C | 46% | 1017 hPa | - | - | - | - |
| 1777886352 | 17.22° C | 51% | 1017.2 hPa | - | - | - | - |
| 1777885753 | 17.78° C | 55% | 1017 hPa | - | - | - | - |
| 1777885152 | 16.11° C | 56% | 1017.3 hPa | - | - | - | - |
| 1777884553 | 16.67° C | 56% | 1017.3 hPa | - | - | - | - |
| 1777883953 | 17.22° C | 53% | 1017 hPa | - | - | - | - |
| 1777883352 | 17.22° C | 53% | 1016.9 hPa | - | - | - | - |
| 1777882752 | 16.67° C | 53% | 1017.1 hPa | - | - | - | - |
| 1777882153 | 16.67° C | 52% | 1017.2 hPa | - | - | - | - |
| 1777881553 | 16.67° C | 54% | 1017.1 hPa | - | - | - | - |
| 1777880953 | 17.22° C | 51% | 1016.8 hPa | - | - | - | - |
| 1777880352 | 16.11° C | 53% | 1017.1 hPa | - | - | - | - |
| 1777879753 | 16.11° C | 53% | 1017.1 hPa | - | - | - | - |
| 1777879152 | 15.56° C | 54% | 1016.9 hPa | - | - | - | - |
| 1777878553 | 14.44° C | 57% | 1017.4 hPa | - | - | - | - |
| 1777877952 | 15° C | 59% | 1017.1 hPa | - | - | - | - |
| 1777877352 | 15.56° C | 54% | 1016.7 hPa | - | - | - | - |
| 1777876752 | 14.44° C | 58% | 1017 hPa | - | - | - | - |
* Rain since midnight (hover to see other rain measurements)
** Current wind speed in m/s (hover to see current wind gust speed)